Weather in Sokur

Russia / Saratov Oblast     51°59′46″N   45°47′27″E
temp.,
°C
wind,
m/s
gust,
m/s
humid.,
%
clouds,
%
prec.,
mm/h
press.,
hPa
HPBL,
m
23 september, thu
thu2301:00+12se3693100 0.9 1013333
04:00+11ese4790100 1.0 1014358
07:00+9e248290 0.0 101597
10:00+11ese2478100 0.0 1015326
13:00+13se5773100 1.2 1014654
16:00+14s1359100 1.3 1013260
19:00+9ese51190100 1.4 1015523
22:00+9ese51094100 2.3 1014622
24 september, fri
fri2401:00+9ese3894100 0.1 1013525
04:00+9se2592100 0.1 1013355
07:00+8ene0095100 0.0 101216
10:00+11ese1183100 0.0 1012338
13:00+12se0077100 0.2 1010496
16:00+10ese2294100 2.2 1010146
19:00+10se1397100 1.0 1010222
22:00+9sse1197100 1.1 101043
25 september, sat
sat2501:00+8n1196100 0.0 100910
04:00+7s11948 0.0 100910
07:00+7ese1194100 0.0 100910
10:00+11sse227593 0.0 1009215
13:00+13sse3464100 0.0 1009515
16:00+14sse235895 0.1 1009920
19:00+12sw127095 0.3 100929
22:00+10wnw118195 0.3 101011
26 september, sun
sun2601:00+10wnw238099 0.1 100945
04:00+10nw238396 0.1 101057
07:00+10wnw2285100 0.1 101056
10:00+12wnw227483 0.2 1009330
13:00+13wsw236795 1.1 1009480
16:00+13sse116597 1.5 1008255
19:00+11sse227796 0.3 100823
22:00+10e1179100 0.4 100813
27 september, mon
mon2701:00+10ne228099 0.0 100853
04:00+10n3679100 0.1 1009151
07:00+9n4987100 0.1 1010363
10:00+10n697497 0.1 1011673
13:00+11n7872100 0.0 1013967
16:00+11n6873100 0.1 10141174
19:00+10nne5873100 0.0 1016764
22:00+8ne5979100 0.1 1019961